[[{"header":{"parameterUnit":"m.s-1","parameterCategory":1,"la1":30.2991,"la2":30.254,"lo1":-89.0895,"lo2":-89.0444,"dy":0.0017,"dx":0.0017,"nx":28,"ny":28,"refTime":"2023-09-21T21:00:00:Z","depth":0,"parameterNumber":2,"parameterNumberName":"U-component_of_WINDS"},"data":[0,0,0,0,0,0,0,0,0,0,0,0,0,0,0,0,0,0,0,0,0,0,0,0,0,0,0,0,0,0,0,0,0,0,0,0,0,0,0,0,0,0,0,0,0,0,0,0,0,0,0,0,0,0,0,0,0,0,-0.2471,-0.2471,0,-0.2459,-0.2458,-0.2458,-0.2449,-0.2449,-0.2448,-0.2448,-0.2435,-0.2435,-0.2434,0,0,0,0,0,0,0,0,0,0,0,0,0,-0.2484,-0.2484,-0.2471,-0.2471,-0.247,-0.2459,-0.2458,-0.2458,-0.2449,-0.2449,-0.2448,-0.2448,-0.2435,-0.2435,-0.2434,0,0,0,0,0,0,0,0,0,0,0,0,0,-0.2476,-0.2484,-0.2471,-0.2464,-0.2464,-0.2459,-0.2458,-0.2458,-0.2449,-0.2449,-0.2448,-0.2448,-0.2435,-0.2435,-0.2434,-0.2435,0,0,-0.2433,-0.2433,0,0,0,0,0,0,0,0,-0.2477,-0.2476,-0.2465,-0.2465,-0.2464,-0.2455,-0.2458,-0.245,-0.2449,-0.2454,-0.2448,-0.2448,-0.2442,-0.2441,-0.2439,-0.2434,-0.2433,-0.2433,-0.2433,-0.2433,-0.2432,0,0,0,0,0,0,0,-0.2477,-0.2476,-0.2466,-0.2465,-0.2464,-0.2462,-0.246,-0.2457,-0.2449,-0.2454,-0.2453,-0.2452,-0.2441,-0.2439,-0.2438,-0.2433,-0.2433,-0.2433,-0.2432,-0.2432,-0.2428,-0.2428,0,0,0,0,0,0,-0.2479,-0.2477,-0.2466,-0.2466,-0.247,-0.2461,-0.246,-0.2458,-0.2449,-0.2447,-0.2452,-0.2451,-0.244,-0.2439,-0.2438,-0.2438,-0.2433,-0.2432,-0.2432,-0.2428,-0.2428,-0.2428,0,0,0,0,0,0,-0.2479,-0.2478,-0.2467,-0.2471,-0.2469,-0.2461,-0.2459,-0.2458,-0.2456,-0.2447,-0.2446,-0.2451,-0.244,-0.2438,-0.2435,-0.2437,-0.2432,-0.2432,-0.2428,-0.2428,-0.2428,-0.2437,0,0,0,0,0,0,-0.248,-0.2478,-0.2479,-0.2471,-0.2469,-0.2465,-0.2459,-0.2458,-0.2455,-0.2454,-0.2447,-0.2445,-0.2439,-0.2436,-0.2435,-0.2436,-0.2431,-0.2427,-0.2428,-0.2428,-0.2437,-0.2438,-0.2439,0,0,0,0,0,-0.248,-0.2481,-0.2479,-0.2477,-0.2469,-0.2465,-0.2464,-0.2458,-0.2455,-0.2455,-0.245,-0.2445,-0.2437,-0.2436,-0.2435,-0.2436,-0.2427,-0.2428,-0.2428,-0.2436,-0.2438,-0.2439,0,0,0,0,0,0,-0.2489,-0.248,-0.2477,-0.2476,-0.2472,-0.2464,-0.2464,-0.2459,-0.2455,-0.2455,-0.2447,-0.2445,-0.2443,-0.2439,-0.2438,-0.2436,-0.2431,-0.2432,-0.2438,-0.2439,-0.244,-0.2441,-0.2431,0,0,0,0,0,-0.2491,-0.2489,-0.2481,-0.2481,-0.2479,-0.2472,-0.247,-0.2465,-0.246,-0.2458,-0.2452,-0.2447,-0.2443,-0.2441,-0.2437,-0.2436,-0.2434,-0.2436,-0.2437,-0.2438,-0.2438,-0.2437,-0.2438,-0.2429,-0.2429,-0.2429,0,0,-0.2495,-0.249,-0.2489,-0.2482,-0.2478,-0.2476,-0.247,-0.2468,-0.2466,-0.2457,-0.2455,-0.245,-0.2444,-0.2442,-0.2441,-0.2439,-0.244,-0.2438,-0.2439,-0.2439,-0.2438,-0.2438,-0.2439,-0.2429,-0.2429,-0.2429,0,0,-0.2501,-0.2497,-0.2496,-0.2492,-0.2486,-0.2481,-0.2481,-0.2474,-0.2471,-0.2468,-0.2462,-0.2459,-0.2453,-0.2449,-0.2446,-0.245,-0.2445,-0.2448,-0.2453,-0.2452,-0.2453,-0.2454,-0.2455,-0.2456,-0.2449,-0.2449,-0.2449,0,-0.2506,-0.2503,-0.2496,-0.2494,-0.2492,-0.2484,-0.2484,-0.248,-0.2473,-0.2471,-0.2469,-0.2461,-0.2456,-0.2453,-0.2454,-0.2451,-0.2451,-0.2449,-0.2454,-0.2454,-0.2455,-0.2456,-0.2457,-0.2449,-0.2449,-0.2449,-0.2449,0,-0.251,-0.2507,-0.2507,-0.2501,-0.2499,-0.2497,-0.249,-0.2488,-0.2484,-0.2479,-0.2476,-0.247,-0.2465,-0.2464,-0.2459,-0.246,-0.2459,-0.2455,-0.2451,-0.2456,-0.2457,-0.2458,-0.245,-0.245,-0.2449,-0.2449,0,0,-0.2521,-0.2511,-0.2512,-0.2509,-0.2502,-0.2499,-0.2497,-0.2493,-0.2491,-0.2486,-0.2484,-0.2479,-0.2476,-0.2472,-0.2467,-0.2467,-0.247,-0.2463,-0.2462,-0.2465,-0.2471,-0.2474,-0.2475,-0.2467,-0.2467,-0.2467,-0.2471,0,-0.2526,-0.2523,-0.2517,-0.2516,-0.2513,-0.2506,-0.2504,-0.25,-0.2495,-0.2492,-0.2487,-0.2483,-0.2479,-0.2477,-0.2476,-0.247,-0.2471,-0.247,-0.2465,-0.2465,-0.2467,-0.2475,-0.2479,-0.2483,-0.2472,-0.2472,-0.2472,0,-0.2532,-0.2528,-0.2526,-0.2519,-0.2518,-0.2517,-0.2512,-0.2509,-0.2503,-0.25,-0.2496,-0.2491,-0.2488,-0.2484,-0.248,-0.2479,-0.2477,-0.2474,-0.2474,-0.2473,-0.2469,-0.2475,-0.2484,-0.2485,-0.2472,-0.2472,-0.2472,0,-0.2541,-0.2535,-0.2533,-0.2531,-0.2522,-0.2522,-0.2518,-0.2512,-0.251,-0.2505,-0.2503,-0.2498,-0.2496,-0.2492,-0.2485,-0.2483,-0.2482,-0.2477,-0.2479,-0.2479,-0.248,-0.248,-0.2488,-0.2477,-0.2477,-0.2477,-0.2477,0,-0.2547,-0.2546,-0.2537,-0.2536,-0.2535,-0.2528,-0.2527,-0.2523,-0.2518,-0.2515,-0.2508,-0.2506,-0.2498,-0.2494,-0.2489,-0.2487,-0.2485,-0.2482,-0.2481,-0.2483,-0.2484,-0.2482,-0.2482,-0.2478,-0.2478,-0.2478,-0.2478,0,-0.2557,-0.2551,-0.2548,-0.2541,-0.2539,-0.2538,-0.2532,-0.253,-0.2525,-0.2523,-0.2522,-0.2514,-0.2509,-0.2502,-0.2496,-0.2492,-0.2491,-0.2489,-0.2493,-0.2493,-0.2495,-0.2495,-0.2503,-0.2504,-0.2492,-0.2492,-0.2492,0,-0.2562,-0.2561,-0.2553,-0.2552,-0.2548,-0.2546,-0.2543,-0.2536,-0.2533,-0.2527,-0.2526,-0.2521,-0.2518,-0.2511,-0.2505,-0.25,-0.2497,-0.25,-0.2496,-0.2499,-0.2498,-0.2498,-0.2498,-0.2501,-0.2502,-0.2502,-0.2502,0,-0.2571,-0.2568,-0.2564,-0.256,-0.2557,-0.2554,-0.2549,-0.2548,-0.254,-0.2537,-0.2533,-0.253,-0.2524,-0.252,-0.2514,-0.2509,-0.2504,-0.2503,-0.2503,-0.2506,-0.2509,-0.2508,-0.2496,-0.2503,-0.2503,-0.2503,-0.2503,-0.2503,-0.2578,-0.2578,-0.2572,-0.2569,-0.2565,-0.2561,-0.2559,-0.2554,-0.2551,-0.2546,-0.2541,-0.2538,-0.2532,-0.2523,-0.2519,-0.2516,-0.2514,-0.2514,-0.2514,-0.2514,-0.2515,-0.2509,-0.2515,-0.2515,-0.2515,-0.2515,-0.2515,0,-0.2587,-0.2583,-0.258,-0.2575,-0.2572,-0.2568,-0.2563,-0.2561,-0.2558,-0.2553,-0.2549,-0.2544,-0.254,-0.2533,-0.2528,-0.2527,-0.2524,-0.2526,-0.2526,-0.2525,-0.2518,-0.2518,-0.2528,-0.2528,-0.2528,-0.2528,-0.2528,-0.2528,-0.2592,-0.259,-0.2587,-0.2583,-0.2579,-0.2576,-0.2573,-0.257,-0.2566,-0.2561,-0.2557,-0.2553,-0.2547,-0.2541,-0.2537,-0.2535,-0.2534,-0.2536,-0.2533,-0.2527,-0.2525,-0.2524,-0.2525,-0.2535,-0.2536,-0.2541,-0.2541,-0.2541]},{"header":{"parameterUnit":"m.s-1","parameterCategory":1,"la1":30.2991,"la2":30.254,"lo1":-89.0895,"lo2":-89.0444,"dy":0.0017,"dx":0.0017,"nx":28,"ny":28,"refTime":"2023-09-21T21:00:00:Z","depth":0,"parameterNumber":3,"parameterNumberName":"V-component_of_WINDS"},"data":[0,0,0,0,0,0,0,0,0,0,0,0,0,0,0,0,0,0,0,0,0,0,0,0,0,0,0,0,0,0,0,0,0,0,0,0,0,0,0,0,0,0,0,0,0,0,0,0,0,0,0,0,0,0,0,0,0,0,-0.655,-0.655,0,-0.6532,-0.6532,-0.6531,-0.6536,-0.6536,-0.6536,-0.6537,-0.6516,-0.6515,-0.6514,0,0,0,0,0,0,0,0,0,0,0,0,0,-0.6588,-0.6588,-0.655,-0.655,-0.6549,-0.6532,-0.6532,-0.6531,-0.6536,-0.6536,-0.6536,-0.6537,-0.6516,-0.6515,-0.6514,0,0,0,0,0,0,0,0,0,0,0,0,0,-0.6571,-0.6587,-0.655,-0.655,-0.6549,-0.6532,-0.6532,-0.6531,-0.6535,-0.6536,-0.6536,-0.6537,-0.6516,-0.6515,-0.6514,-0.6495,0,0,-0.6509,-0.6509,0,0,0,0,0,0,0,0,-0.6572,-0.657,-0.655,-0.655,-0.6549,-0.6537,-0.6537,-0.6519,-0.6535,-0.6541,-0.6537,-0.6537,-0.6522,-0.652,-0.6516,-0.6494,-0.6493,-0.6509,-0.6509,-0.6508,-0.6508,0,0,0,0,0,0,0,-0.6573,-0.657,-0.6543,-0.655,-0.6549,-0.655,-0.6548,-0.6534,-0.6528,-0.654,-0.654,-0.6538,-0.6522,-0.6517,-0.6515,-0.6493,-0.6509,-0.6508,-0.6507,-0.6507,-0.6459,-0.6458,0,0,0,0,0,0,-0.6575,-0.6571,-0.6543,-0.6542,-0.6562,-0.6549,-0.6547,-0.654,-0.6529,-0.6527,-0.6538,-0.6539,-0.6519,-0.6517,-0.6514,-0.6494,-0.6508,-0.6507,-0.6506,-0.6459,-0.6459,-0.6458,0,0,0,0,0,0,-0.6576,-0.6572,-0.6544,-0.6557,-0.6553,-0.6548,-0.654,-0.6539,-0.6534,-0.6527,-0.6526,-0.6534,-0.6519,-0.6516,-0.6501,-0.6493,-0.6506,-0.6505,-0.646,-0.6459,-0.6458,-0.6452,0,0,0,0,0,0,-0.6577,-0.6572,-0.6565,-0.6557,-0.6553,-0.653,-0.654,-0.6539,-0.6532,-0.6533,-0.6523,-0.6522,-0.6519,-0.6503,-0.6499,-0.6492,-0.6504,-0.646,-0.6459,-0.6458,-0.6453,-0.6451,-0.645,0,0,0,0,0,-0.6578,-0.6562,-0.6564,-0.6561,-0.6543,-0.653,-0.6528,-0.6526,-0.6532,-0.6525,-0.6521,-0.6522,-0.6495,-0.6501,-0.6497,-0.6489,-0.6461,-0.646,-0.6459,-0.6453,-0.6451,-0.645,0,0,0,0,0,0,-0.6568,-0.6561,-0.6563,-0.6545,-0.6538,-0.6531,-0.6521,-0.6523,-0.6514,-0.6515,-0.6513,-0.6511,-0.6496,-0.6491,-0.6498,-0.6472,-0.6479,-0.6477,-0.6476,-0.6474,-0.6472,-0.6474,-0.6503,0,0,0,0,0,-0.6564,-0.6554,-0.6548,-0.6533,-0.6529,-0.6526,-0.652,-0.652,-0.6513,-0.651,-0.6504,-0.6497,-0.6487,-0.648,-0.647,-0.6452,-0.6451,-0.6445,-0.6444,-0.6443,-0.6441,-0.6434,-0.6432,-0.6454,-0.6454,-0.6454,0,0,-0.6554,-0.655,-0.6543,-0.6531,-0.6525,-0.6516,-0.6523,-0.6512,-0.6505,-0.6507,-0.6493,-0.649,-0.6481,-0.6465,-0.6458,-0.6461,-0.6435,-0.6441,-0.644,-0.6439,-0.6433,-0.6431,-0.6429,-0.6454,-0.6454,-0.6454,0,0,-0.6533,-0.6528,-0.6516,-0.6511,-0.6505,-0.6503,-0.65,-0.6493,-0.6492,-0.6478,-0.648,-0.6472,-0.6454,-0.6449,-0.6444,-0.6426,-0.6428,-0.6423,-0.6414,-0.6408,-0.6406,-0.6405,-0.64,-0.6398,-0.6421,-0.6421,-0.6421,0,-0.6522,-0.6508,-0.6509,-0.6499,-0.6494,-0.6498,-0.6486,-0.6482,-0.6471,-0.6468,-0.6472,-0.6453,-0.6447,-0.6431,-0.6428,-0.6423,-0.6421,-0.6424,-0.6406,-0.6405,-0.6403,-0.6399,-0.6397,-0.6421,-0.6421,-0.6421,-0.6421,0,-0.6497,-0.6487,-0.6478,-0.6471,-0.6465,-0.6454,-0.6453,-0.6448,-0.6449,-0.6447,-0.6435,-0.6429,-0.642,-0.6416,-0.6416,-0.6401,-0.6404,-0.6407,-0.6413,-0.6401,-0.6397,-0.6395,-0.642,-0.642,-0.642,-0.6421,0,0,-0.6466,-0.6462,-0.6459,-0.6457,-0.6451,-0.6444,-0.6434,-0.6427,-0.6423,-0.6416,-0.6409,-0.6396,-0.64,-0.6395,-0.6395,-0.6389,-0.6378,-0.6393,-0.6393,-0.6392,-0.6364,-0.6362,-0.636,-0.6379,-0.6379,-0.6378,-0.6365,0,-0.6446,-0.6429,-0.6431,-0.6416,-0.6409,-0.6414,-0.6406,-0.6402,-0.6401,-0.6395,-0.6393,-0.6385,-0.639,-0.6388,-0.6382,-0.638,-0.6372,-0.6381,-0.6373,-0.6372,-0.6375,-0.6357,-0.6354,-0.6342,-0.6363,-0.6363,-0.6363,0,-0.6419,-0.6415,-0.6399,-0.6398,-0.6395,-0.6387,-0.6383,-0.6376,-0.6373,-0.6373,-0.6369,-0.6371,-0.6362,-0.6369,-0.6358,-0.6364,-0.6361,-0.636,-0.636,-0.6359,-0.6367,-0.6357,-0.6337,-0.6336,-0.636,-0.636,-0.636,0,-0.6401,-0.6391,-0.6381,-0.6379,-0.6377,-0.6372,-0.6371,-0.6368,-0.6365,-0.636,-0.6358,-0.6352,-0.6349,-0.6345,-0.6346,-0.6351,-0.6336,-0.6342,-0.6336,-0.6336,-0.6332,-0.6332,-0.6313,-0.6329,-0.6329,-0.6329,-0.6329,0,-0.6379,-0.6369,-0.6374,-0.6367,-0.6358,-0.6361,-0.6351,-0.6351,-0.6349,-0.6344,-0.6347,-0.6342,-0.6343,-0.6338,-0.6339,-0.6331,-0.6329,-0.6329,-0.633,-0.6329,-0.6329,-0.6327,-0.6328,-0.6329,-0.6329,-0.6329,-0.6329,0,-0.6357,-0.6359,-0.6349,-0.6349,-0.6349,-0.6342,-0.6342,-0.6337,-0.6338,-0.6331,-0.633,-0.633,-0.6325,-0.6326,-0.6319,-0.632,-0.6311,-0.6311,-0.6312,-0.6313,-0.6307,-0.6308,-0.6286,-0.6284,-0.6301,-0.63,-0.63,0,-0.6343,-0.6336,-0.6336,-0.6334,-0.6333,-0.6328,-0.6326,-0.6329,-0.6326,-0.6324,-0.6319,-0.6315,-0.6311,-0.6303,-0.6303,-0.6299,-0.63,-0.6293,-0.6299,-0.63,-0.6301,-0.6302,-0.6302,-0.6291,-0.6291,-0.6291,-0.6291,0,-0.6318,-0.6321,-0.6317,-0.6315,-0.6312,-0.631,-0.6308,-0.6306,-0.6309,-0.6306,-0.6302,-0.6299,-0.6294,-0.629,-0.6287,-0.6286,-0.6289,-0.6289,-0.6288,-0.6287,-0.6288,-0.6289,-0.6309,-0.6289,-0.6289,-0.6289,-0.629,-0.629,-0.6301,-0.6296,-0.6297,-0.6293,-0.6293,-0.6292,-0.6289,-0.629,-0.6287,-0.6284,-0.6286,-0.6281,-0.6281,-0.6277,-0.6276,-0.6273,-0.6275,-0.6273,-0.6272,-0.6272,-0.6272,-0.6289,-0.6272,-0.6272,-0.6272,-0.6272,-0.6272,0,-0.6278,-0.6279,-0.6276,-0.6275,-0.6273,-0.6278,-0.6277,-0.6275,-0.6271,-0.6271,-0.6269,-0.6265,-0.6262,-0.6263,-0.626,-0.6258,-0.6259,-0.6257,-0.6257,-0.6257,-0.6269,-0.6271,-0.6256,-0.6256,-0.6256,-0.6256,-0.6256,-0.6256,-0.6266,-0.6259,-0.6262,-0.6257,-0.6258,-0.6254,-0.6254,-0.6254,-0.6254,-0.625,-0.6248,-0.6249,-0.625,-0.6248,-0.6246,-0.6246,-0.6245,-0.6243,-0.6244,-0.6255,-0.6256,-0.6258,-0.626,-0.6242,-0.6242,-0.6232,-0.6232,-0.6232]}]]